Bryce, UT (84764)

6:39 PM MST on February 20, 2017 (GMT -0700)
Bryce Canyon | | Change Station

Elev 7585 ft 37.71 °N, 112.15 °W | Updated 16 minutes ago

Fog
Fog
34 °F
Feels Like 25 °F
N
14
Wind Variable Wind from SE

Today
High -- | Low -- °F
--% Chance of Precip.
Yesterday
High -- | Low -- °F
Precip. -- in
Pressure 30.25 in
Visibility 0.2 miles
Clouds Mostly Cloudy 100 ft
Overcast 2100 ft
Windchill 25 °F
Dew Point 33 °F
Humidity 96%
Rainfall 0.00 in
Snow Depth Not available.
7:11 AM 6:13 PM
Waning Crescent, 29% visible
SPECI KBCE 210123Z AUTO 14012KT 1/4SM FG BKN001 OVC021 01/01 A3025 RMK AO2 T00110006 TSNO
Pressure 30.25 in
Visibility 0.2 miles
Clouds Mostly Cloudy 100 ft
Overcast 2100 ft
Windchill 25 °F
Dew Point 33 °F
Humidity 96%
Rainfall 0.00 in
Snow Depth Not available.
7:11 AM 6:13 PM
Waning Crescent, 29% visible
SPECI KBCE 210123Z AUTO 14012KT 1/4SM FG BKN001 OVC021 01/01 A3025 RMK AO2 T00110006 TSNO

Get Your Daily Forecast Email!

Thanks for signing up!

Be on the lookout for a verification email in your inbox.

You'll start receiving the daily forecast at 8 AM.

×

10-Day Weather Forecast

Almanac

Astronomy

Feb. 20, 2017 Rise Set
Actual Time
Civil Twilight
Nautical Twilight
Astronomical Twilight
Moon
Length of Visible Light
Length of Day
Tomorrow will be .
, % of the Moon is Illuminated

Today's Extremes

State Highs State Lows

Community

WunderPhotos

Upload Photos

1,962,540 photos uploaded!

WunderBlog® & News

Nearby

Air Quality

  Air Quality AQ Index Pollutant
Not available.

Snow Depth

Station Depth Elevation

Earthquake Activity

City Distance Mag. Time & Date
Minimum magnitude displayed is 2.5.

Coastal Water Temperatures

Place Temperature

Stations

Nearby Weather Stations

Station Location Temp. Windchill Dew Point Humidity Wind Precip. Elev Updated Type
                   

Watches & Warnings

There are currently no watches in effect.